This is the latest recevied weather packets stored in our database for station/object N0NPO. If no packets are shown the sender has not sent any weather packets the latest 10 day(s).
| Time | Temp. | Humidity | Pressure | Rain* | Wind** | Luminosity | Snow |
|---|---|---|---|---|---|---|---|
| 1778175334 | 15° C | 1% | 1014.9 hPa | 0 mm | - | 732 W/m² | - |
| 1778175031 | 15° C | 1% | 1015 hPa | 0 mm | - | 719 W/m² | - |
| 1778174727 | 13.89° C | 1% | 1014.9 hPa | 0 mm | - | 673 W/m² | - |
| 1778174424 | 13.89° C | 1% | 1014.9 hPa | 0 mm | - | 642 W/m² | - |
| 1778174119 | 15° C | 1% | 1015.2 hPa | 0 mm | - | 667 W/m² | - |
| 1778173817 | 14.44° C | 1% | 1015 hPa | 0 mm | - | 778 W/m² | - |
| 1778173514 | 13.89° C | 1% | 1015 hPa | 0 mm | - | 772 W/m² | - |
| 1778173210 | 13.89° C | 1% | 1015.2 hPa | 0 mm | - | 777 W/m² | - |
| 1778172906 | 15° C | 1% | 1015.2 hPa | 0 mm | - | 728 W/m² | - |
| 1778172603 | 13.33° C | 1% | 1015.4 hPa | 0 mm | - | 691 W/m² | - |
| 1778172299 | 13.33° C | 1% | 1015.4 hPa | 0 mm | - | 814 W/m² | - |
| 1778171996 | 13.89° C | 1% | 1015.4 hPa | 0 mm | - | 615 W/m² | - |
| 1778171693 | 13.89° C | 1% | 1015.3 hPa | 0 mm | - | 774 W/m² | - |
| 1778171390 | 13.33° C | 1% | 1015.4 hPa | 0 mm | - | 766 W/m² | - |
| 1778171086 | 13.33° C | 1% | 1015.5 hPa | 0 mm | - | 661 W/m² | - |
| 1778170783 | 13.33° C | 1% | 1015.4 hPa | 0 mm | - | 711 W/m² | - |
| 1778170479 | 13.33° C | 1% | 1015.5 hPa | 0 mm | - | 702 W/m² | - |
| 1778170176 | 13.33° C | 1% | 1015.5 hPa | 0 mm | - | 705 W/m² | - |
| 1778169872 | 12.22° C | 1% | 1015.8 hPa | 0 mm | - | 702 W/m² | - |
| 1778169568 | 12.78° C | 1% | 1015.6 hPa | 0 mm | - | 699 W/m² | - |
| 1778169264 | 12.22° C | 1% | 1015.7 hPa | 0 mm | - | 679 W/m² | - |
| 1778168961 | 11.67° C | 1% | 1015.6 hPa | 0 mm | - | 691 W/m² | - |
| 1778168658 | 12.22° C | 1% | 1015.5 hPa | 0 mm | - | 668 W/m² | - |
| 1778168355 | 11.67° C | 1% | 1015.6 hPa | 0 mm | - | 643 W/m² | - |
| 1778168052 | 11.67° C | 1% | 1015.6 hPa | 0 mm | - | 548 W/m² | - |
* Rain latest hour (hover to see other rain measurements)
** Current wind speed in m/s (hover to see current wind gust speed)